TimeIST,TemperatureF,Dew PointF,Humidity,Sea Level PressureIn,VisibilityMPH,Wind Direction,Wind SpeedMPH,Gust SpeedMPH,PrecipitationIn,Events,Conditions,WindDirDegrees,DateUTC
12:20 AM,84.2,78.8,84,29.62,-9999.0,Calm,Calm,-,N/A,,Haze,0,2013-09-23 18:50:00
12:50 AM,84.2,78.8,84,29.59,1.9,Calm,Calm,-,N/A,,Haze,0,2013-09-23 19:20:00
1:20 AM,84.2,78.8,84,29.56,1.9,Calm,Calm,-,N/A,,Haze,0,2013-09-23 19:50:00
2:20 AM,84.2,78.8,84,29.59,1.7,Calm,Calm,-,N/A,,Haze,0,2013-09-23 20:50:00
2:30 AM,83,80,86,29.60,1,Calm,Calm,,,,Haze,,2013-09-23 21:00:00
2:50 AM,84.2,78.8,84,29.59,1.7,Calm,Calm,-,N/A,,Haze,0,2013-09-23 21:20:00
3:20 AM,84.2,78.8,84,29.59,1.7,Calm,Calm,-,N/A,,Haze,0,2013-09-23 21:50:00
3:50 AM,82.4,78.8,89,29.59,1.7,Calm,Calm,-,N/A,,Haze,0,2013-09-23 22:20:00
4:20 AM,82.4,78.8,89,29.59,1.7,Calm,Calm,-,N/A,,Haze,0,2013-09-23 22:50:00
4:50 AM,82.4,80.6,94,29.59,1.7,Calm,Calm,-,N/A,,Haze,0,2013-09-23 23:20:00
5:20 AM,82.4,80.6,94,29.62,1.6,Calm,Calm,-,N/A,,Haze,0,2013-09-23 23:50:00
5:30 AM,82,79,88,29.63,1,Calm,Calm,,,,Haze,,2013-09-24 00:00:00
5:50 AM,82.4,80.6,94,29.62,1.6,Calm,Calm,-,N/A,,Haze,0,2013-09-24 00:20:00
6:20 AM,82.4,80.6,94,29.65,1.6,Calm,Calm,-,N/A,,Haze,0,2013-09-24 00:50:00
6:50 AM,84.2,80.6,89,29.65,1.6,Calm,Calm,-,N/A,,Haze,0,2013-09-24 01:20:00
7:20 AM,86.0,78.8,79,29.68,1.6,SE,3.5,-,N/A,,Haze,130,2013-09-24 01:50:00
7:50 AM,87.8,78.8,75,29.68,1.7,WSW,3.5,-,N/A,,Haze,240,2013-09-24 02:20:00
8:20 AM,87.8,78.8,75,29.68,1.9,Calm,Calm,-,N/A,,Haze,0,2013-09-24 02:50:00
8:30 AM,90,81,69,29.67,1,Calm,Calm,,,,Haze,,2013-09-24 03:00:00
8:50 AM,89.6,78.8,70,29.68,1.9,Calm,Calm,-,N/A,,Haze,0,2013-09-24 03:20:00
9:20 AM,89.6,78.8,70,29.68,1.9,Calm,Calm,-,N/A,,Haze,0,2013-09-24 03:50:00
9:50 AM,91.4,78.8,66,29.68,-9999.0,South,4.6,-,N/A,,Haze,180,2013-09-24 04:20:00
10:20 AM,93.2,78.8,63,29.65,2.2,SE,3.5,-,N/A,,Haze,140,2013-09-24 04:50:00
10:50 AM,93.2,78.8,63,29.65,2.2,SSE,4.6,-,N/A,,Haze,160,2013-09-24 05:20:00
11:20 AM,93.2,78.8,63,29.65,2.2,SSE,6.9,-,N/A,,Haze,150,2013-09-24 05:50:00
11:30 AM,95,79,51,29.66,1,Calm,Calm,,,,Haze,,2013-09-24 06:00:00
11:50 AM,95.0,78.8,59,29.62,2.2,ESE,5.8,-,N/A,,Haze,110,2013-09-24 06:20:00
12:20 PM,95.0,78.8,59,29.62,2.2,ESE,6.9,-,N/A,,Haze,120,2013-09-24 06:50:00
12:50 PM,95.0,78.8,59,29.59,-9999.0,SSE,8.1,-,N/A,,Haze,150,2013-09-24 07:20:00
1:20 PM,95.0,78.8,59,29.59,2.8,ESE,6.9,-,N/A,,Haze,120,2013-09-24 07:50:00
1:50 PM,95.0,78.8,59,29.56,2.8,SE,6.9,-,N/A,,Haze,140,2013-09-24 08:20:00
2:20 PM,95.0,78.8,59,29.56,2.8,SE,6.9,-,N/A,,Haze,140,2013-09-24 08:50:00
2:30 PM,96,77,46,29.58,1,East,3.5,,,,Haze,90,2013-09-24 09:00:00
2:50 PM,95.0,77.0,56,29.56,2.8,ESE,6.9,-,N/A,,Haze,120,2013-09-24 09:20:00
3:20 PM,95.0,77.0,56,29.56,2.8,SSE,6.9,-,N/A,,Haze,150,2013-09-24 09:50:00
3:50 PM,93.2,77.0,59,29.53,2.8,SSE,6.9,-,N/A,,Haze,160,2013-09-24 10:20:00
4:20 PM,93.2,77.0,59,29.53,2.8,SSE,6.9,-,N/A,,Haze,150,2013-09-24 10:50:00
4:50 PM,91.4,77.0,63,29.56,2.8,South,5.8,-,N/A,,Haze,170,2013-09-24 11:20:00
5:20 PM,91.4,77.0,63,29.56,2.5,South,5.8,-,N/A,,Haze,170,2013-09-24 11:50:00
5:30 PM,90,78,61,29.58,1,SE,2.3,,,,Haze,140,2013-09-24 12:00:00
5:50 PM,89.6,78.8,70,29.56,2.5,South,3.5,-,N/A,,Haze,190,2013-09-24 12:20:00
6:20 PM,89.6,78.8,70,29.59,2.2,South,8.1,-,N/A,,Haze,190,2013-09-24 12:50:00
6:50 PM,87.8,80.6,79,29.59,2.2,South,9.2,-,N/A,,Haze,180,2013-09-24 13:20:00
7:20 PM,87.8,80.6,79,29.59,2.2,South,6.9,-,N/A,,Haze,190,2013-09-24 13:50:00
7:50 PM,87.8,80.6,79,29.62,2.2,SW,6.9,-,N/A,,Haze,230,2013-09-24 14:20:00
8:20 PM,87.8,80.6,79,29.65,2.2,SSW,5.8,-,N/A,,Haze,200,2013-09-24 14:50:00
8:30 PM,87,80,74,29.67,1,Calm,Calm,,,,Haze,,2013-09-24 15:00:00
8:50 PM,86.0,78.8,79,29.65,2.2,SW,4.6,-,N/A,,Haze,230,2013-09-24 15:20:00
9:20 PM,86.0,78.8,79,29.65,2.2,WSW,6.9,-,N/A,,Haze,240,2013-09-24 15:50:00
9:50 PM,86.0,78.8,79,29.68,2.2,SW,8.1,-,N/A,,Haze,230,2013-09-24 16:20:00
10:20 PM,86.0,78.8,79,29.68,2.2,South,4.6,-,N/A,,Haze,180,2013-09-24 16:50:00
10:50 PM,86.0,78.8,79,29.65,2.2,SW,5.8,-,N/A,,Haze,220,2013-09-24 17:20:00
11:20 PM,86.0,78.8,79,29.65,2.2,South,3.5,-,N/A,,Haze,180,2013-09-24 17:50:00
11:30 PM,86,81,80,29.69,1,Calm,Calm,,,,Haze,,2013-09-24 18:00:00
11:50 PM,86.0,80.6,84,29.65,2.2,South,4.6,-,N/A,,Haze,170,2013-09-24 18:20:00